This is the latest recevied weather packets stored in our database for station/object EW1958. If no packets are shown the sender has not sent any weather packets the latest 10 day(s).
| Time | Temp. | Humidity | Pressure | Rain* | Wind** | Luminosity | Snow |
|---|---|---|---|---|---|---|---|
| 1777846296 | 26.11° C | 42% | 1014.1 hPa | 0 mm | - | - | - |
| 1777845996 | 26.67° C | 43% | 1014.1 hPa | 0 mm | - | - | - |
| 1777845695 | 26.67° C | 42% | 1014.2 hPa | 0 mm | - | - | - |
| 1777845396 | 26.67° C | 41% | 1014.2 hPa | 0 mm | - | - | - |
| 1777845096 | 26.67° C | 43% | 1014.2 hPa | 0 mm | - | - | - |
| 1777844795 | 26.67° C | 42% | 1014.2 hPa | 0 mm | - | - | - |
| 1777844496 | 26.67° C | 40% | 1014.2 hPa | 0 mm | - | - | - |
| 1777844348 | 27.22° C | 39% | 1014.2 hPa | 0 mm | - | - | - |
| 1777843896 | 27.22° C | 44% | 1014.3 hPa | 0 mm | - | - | - |
| 1777843595 | 27.22° C | 43% | 1014.3 hPa | 0 mm | - | - | - |
| 1777843296 | 27.22° C | 45% | 1014.3 hPa | 0 mm | - | - | - |
| 1777842995 | 27.22° C | 44% | 1014.3 hPa | 0 mm | - | - | - |
| 1777842694 | 27.22° C | 44% | 1014.3 hPa | 0 mm | - | - | - |
| 1777842393 | 27.22° C | 43% | 1014.3 hPa | 0 mm | - | - | - |
| 1777842220 | 27.22° C | 45% | 1014.5 hPa | 0 mm | - | - | - |
| 1777841794 | 27.22° C | 44% | 1014.6 hPa | 0 mm | - | - | - |
| 1777841646 | 26.67° C | 45% | 1014.6 hPa | 0 mm | - | - | - |
| 1777841324 | 26.67° C | 45% | 1014.8 hPa | 0 mm | - | - | - |
| 1777840894 | 26.67° C | 46% | 1014.9 hPa | 0 mm | - | - | - |
| 1777840748 | 26.67° C | 44% | 1014.9 hPa | 0 mm | - | - | - |
| 1777840293 | 27.22° C | 44% | 1015 hPa | 0 mm | - | - | - |
| 1777839993 | 26.67° C | 44% | 1014.9 hPa | 0 mm | - | - | - |
| 1777839691 | 26.67° C | 43% | 1014.9 hPa | 0 mm | - | - | - |
| 1777839388 | 26.67° C | 43% | 1015 hPa | 0 mm | - | - | - |
| 1777839085 | 26.67° C | 46% | 1015.1 hPa | 0 mm | - | - | - |
* Rain latest hour (hover to see other rain measurements)
** Current wind speed in m/s (hover to see current wind gust speed)